Home > Weather > Inuvik > Past weeks

Flag for Canada Past Weather in Inuvik, Northwest Territories, Canada — Yesterday and Last 2 Weeks

Now
36 °F

Passing clouds.


Feels Like: 28 °F
Forecast: 28 / 44 °F
Wind: 10 mph from North

Location: Inuvik

Current Time: May 28, 2016 at 12:11:35 AM

Latest Report: May 27, 2016 at 11:00 PM


Visibility: 15 mi

Pressure: 30.39 "Hg

Humidity: 65%

Dew Point: 25 °F

Location of InuvikLocation

Past Weather in Inuvik — Graph

°F

Inuvik Temperature Yesterday

Maximum temperature yesterday: 46 °F (at 1:00 PM)
Minimum temperature yesterday: 34 °F (at 3:00 AM)
Average temperature yesterday: 40 °F

High & Low Weather Summary for the Past Weeks

 TemperatureHumidityPressure
High70 °F (May 21, 4:00 PM)100% (May 13, 6:00 AM)30.39 "Hg (May 13, 6:00 AM)
Low27 °F (May 18, 5:00 AM)23% (May 19, 9:00 PM)29.67 "Hg (May 21, 9:00 PM)
Average43 °F67%30.14 "Hg
* Reported May 12 11:01 PM — May 27 11:00 PM, Inuvik, Weather by CustomWeather, © 2016

Note: Actual official high and low records may vary slightly from our data, if they occured in-between our weather recording intervals... More about our weather records

Advertising

Inuvik Weather History for the Previous 24 Hours

Scroll right to see more
 ConditionsComfort  
Time TempWeatherWind HumidityBarometerVisibility
11:00 PM
Fri, May 27
36 °FPassing clouds.10 mph65%30.39 "Hg15 mi
10:00 PM36 °FPartly sunny.8 mph65%30.38 "Hg15 mi
9:00 PM37 °FPartly sunny.9 mph65%30.36 "Hg15 mi
8:00 PM41 °FPartly sunny.10 mph61%30.35 "Hg15 mi
7:00 PM43 °FOvercast.10 mph57%30.35 "Hg15 mi
6:00 PM43 °FPartly sunny.8 mph57%30.35 "Hg15 mi
5:00 PM46 °FPartly sunny.9 mph53%30.34 "Hg15 mi
4:00 PM45 °FPartly sunny.13 mph57%30.33 "Hg15 mi
3:00 PM45 °FScattered showers. Overcast.10 mph61%30.33 "Hg15 mi
2:00 PM45 °FScattered showers. Overcast.7 mph61%30.32 "Hg15 mi
1:00 PM46 °FPartly sunny.8 mph57%30.31 "Hg15 mi
12:00 PM43 °FPartly sunny.9 mph61%30.31 "Hg15 mi
11:00 AM43 °FPartly sunny.9 mph61%30.31 "Hg15 mi
10:00 AM41 °FBroken clouds.10 mph61%30.32 "Hg15 mi
9:00 AM39 °FPartly sunny.8 mph65%30.32 "Hg15 mi
8:00 AM39 °FPartly sunny.6 mph65%30.33 "Hg15 mi
7:00 AM36 °FPartly sunny.6 mph75%30.33 "Hg15 mi
6:00 AM36 °FPartly sunny.7 mph75%30.34 "Hg15 mi
5:00 AM36 °FPartly sunny.8 mph75%30.33 "Hg15 mi
4:00 AM36 °FPartly sunny.8 mph75%30.33 "Hg15 mi
3:00 AM34 °FPartly sunny.7 mph81%30.34 "Hg15 mi
2:00 AM36 °FScattered clouds.7 mph75%30.34 "Hg15 mi
1:00 AM37 °FScattered clouds.8 mph70%30.34 "Hg15 mi
12:00 AM39 °FPartly sunny.8 mph70%30.34 "Hg15 mi
Weather by CustomWeather, © 2016

See weather overviewHow to use our weather pages